Location: Aulus
(42.7909°N, 1.3399°E)
Time: 04:56:38
(UTC+00:00)

Meteor 2-2 Rocket - Pass Details

Date: 19 May 2025
Orbit: 852 x 927 km, 81.3° (Epoch: 13 June)

Event Time Altitude Azimuth Distance (km) Brightness Sun altitude
Exits shadow 20:57:33 11° 183° (S) 2,466 6.2 -15.6°
Maximum altitude 21:03:09 79° 98° (E) 932 4.3 -16.3°
Drops below altitude 10° 21:09:09 10° 12° (NNE) 2,627 7.3 -17.0°
Sets 21:11:39 0° 12° (NNE) 3,579 8.0 -17.3°
